This is the latest recevied weather packets stored in our database for station/object KC5DAQ-25. If no packets are shown the sender has not sent any weather packets the latest 10 day(s).
| Time | Temp. | Humidity | Pressure | Rain* | Wind** | Luminosity | Snow |
|---|---|---|---|---|---|---|---|
| 1777035633 | 22.22° C | 88% | 1000.3 hPa | 0 mm | - | 41 W/m² | - |
| 1777035573 | 22.22° C | 88% | 1000.3 hPa | 0 mm | - | 41 W/m² | - |
| 1777035512 | 22.22° C | 88% | 1000.2 hPa | 0 mm | - | 44 W/m² | - |
| 1777035452 | 22.22° C | 88% | 1000.3 hPa | 0 mm | - | 44 W/m² | - |
| 1777035394 | 22.22° C | 88% | 1000.2 hPa | 0 mm | - | 48 W/m² | - |
| 1777035333 | 22.22° C | 88% | 1000.3 hPa | 0 mm | - | 49 W/m² | - |
| 1777035272 | 22.22° C | 88% | 1000.3 hPa | 0 mm | - | 55 W/m² | - |
| 1777035212 | 22.22° C | 88% | 1000.3 hPa | 0 mm | - | 55 W/m² | - |
| 1777035152 | 22.22° C | 88% | 1000.3 hPa | 0 mm | - | 55 W/m² | - |
| 1777035092 | 22.22° C | 88% | 1000.3 hPa | 0 mm | - | 55 W/m² | - |
| 1777035034 | 22.22° C | 88% | 1000.3 hPa | 0 mm | - | 63 W/m² | - |
| 1777034973 | 22.22° C | 88% | 1000.3 hPa | 0 mm | - | 63 W/m² | - |
| 1777034912 | 22.22° C | 88% | 1000.2 hPa | 0 mm | - | 93 W/m² | - |
| 1777034853 | 22.22° C | 88% | 1000.2 hPa | 0 mm | - | 100 W/m² | - |
| 1777034793 | 22.22° C | 88% | 1000.1 hPa | 0 mm | - | 69 W/m² | - |
| 1777034732 | 22.22° C | 88% | 1000.1 hPa | 0 mm | - | 69 W/m² | - |
| 1777034672 | 22.22° C | 88% | 1000.1 hPa | 0 mm | - | 69 W/m² | - |
| 1777034612 | 22.22° C | 88% | 1000.1 hPa | 0 mm | - | 69 W/m² | - |
| 1777034552 | 22.22° C | 88% | 1000.1 hPa | 0 mm | - | 56 W/m² | - |
| 1777034492 | 22.22° C | 88% | 1000.1 hPa | 0 mm | - | 56 W/m² | - |
| 1777034424 | 22.22° C | 88% | 999.9 hPa | 0 mm | - | 55 W/m² | - |
| 1777034364 | 22.22° C | 88% | 1000 hPa | 0 mm | - | 51 W/m² | - |
| 1777034301 | 22.22° C | 88% | 1000 hPa | 0 mm | - | 51 W/m² | - |
| 1777034236 | 22.22° C | 88% | 1000 hPa | 0 mm | - | 51 W/m² | - |
| 1777034178 | 21.67° C | 88% | 1000 hPa | 0 mm | - | 51 W/m² | - |
* Rain latest hour (hover to see other rain measurements)
** Current wind speed in m/s (hover to see current wind gust speed)